Weather in Richmond

Australia     33°36′02″S   150°45′11″E
temp.,
°C
wind,
m/s
gust,
m/s
humid.,
%
clouds,
%
prec.,
mm/h
press.,
hPa
HPBL,
m
1 march, mon
mon123:00+20ssw129334 0.2 1012137
02:00+20sw1386100 0.0 1011206
05:00+18wsw1197100 0.0 101023
08:00+20n128818 0.0 1011136
11:00+28nne23499 0.0 1011798
14:00+36wsw26180 0.0 10083423
17:00+34w47190 0.0 10053472
20:00+25wnw13420 0.0 100668
2 march, tue
tue223:00+22wsw27410 0.0 1008175
02:00+17ssw27740 0.0 1009341
05:00+16wsw26870 0.0 1010220
08:00+17sw14789 0.0 1013327
11:00+22se335930 0.3 10131078
14:00+20ese346099 0.1 1012930
17:00+21se445686 0.1 10111184
20:00+17se1569100 0.0 1013668
3 march, wed
wed323:00+16sw117183 0.0 1016105
02:00+16wsw1370100 0.0 1015210
05:00+15sw1381100 0.1 1015156
08:00+15sw138586 0.2 1016151
11:00+20se225861 0.4 10161117
14:00+21se225387 0.1 10141203
17:00+20ese445572 0.1 10131151
20:00+17e256898 0.0 1015528
4 march, thu
thu423:00+16s127299 0.0 101774
02:00+16sw2571100 0.0 1016246
05:00+15wsw127298 0.0 101688
08:00+15w117437 0.0 101797
11:00+22sse215034 0.0 10161105
14:00+26se22364 0.0 10131775
17:00+24ese434517 0.0 10111331
20:00+17ese12810 0.0 101341
5 march, fri
fri523:00+14wnw11920 0.0 101423
02:00+13wnw11960 0.0 101323
05:00+13wnw11970 0.0 101323
08:00+15ssw12870 0.0 1014144
11:00+22se22552 0.0 10141001
14:00+24se445439 0.0 10131247
17:00+21se465669 0.0 10121109
20:00+17se266784 0.0 1015400